Location: Astronomy Club of Akron Observatory
(40.9700°N, 81.5606°W)
Time: 19:27:11
(UTC-04:00)

Cosmos 1441 Rocket - Visible Passes

Search period start: 31 July 2015 00:00
Search period end: 10 August 2015 00:00
Orbit: 502 x 550 km, 81.1° (Epoch: 30 July)

Date Brightness Start Highest point End Pass type
(mag) Time Alt. Az. Time Alt. Az. Time Alt. Az.
31 Jul 3.9 21:29:47 10° SSW 21:33:35 57° WNW 21:37:21 10° N visible
01 Aug 3.7 21:17:53 10° SSW 21:21:42 64° W 21:25:29 10° N visible
02 Aug 3.5 21:05:59 10° SSW 21:09:49 71° W 21:13:36 10° N visible
09 Aug 6.8 05:52:34 10° NE 05:54:21 13° ENE 05:56:17 10° E visible
